Tracking 35274 objects as of 11-Sep-2026
HD Live streaming from Space Station
objects crossing your sky now

STARLINK-35605

Track STARLINK-35605 now!
10-day predictions
STARLINK-35605 is classified as:


NORAD ID: 66150
Int'l Code: 2025-240E
Launch date: October 25, 2025
Source: United States (US)
Launch site: AIR FORCE EASTERN TEST RANGE (AFETR)
Your satellite tracking list
Your tracking list is empty




NASA's NSSDC Master Catalog

Two Line Element Set (TLE):
1 66150U 25240E   26254.78801865  .00002987  00000-0  99600-4 0  9997
2 66150  53.1581 276.0894 0001460  67.6141 292.5016 15.34366226 50519
Source of the keplerian elements: AFSPC